CZ-3C DEB, 39345

Orbit data source: Space-Track

CZ-3C DEB, 39345 is space debris in HEO originally from a launch on Sun, 31 Oct 2010 UTC launched from the Xichang Space Center, China (XSC). Debris objects in space refer to the collection of defunct objects orbiting the Earth. Examples of debris include non-operational satellites, rocket bodies, and fragments generated from explosions, collisions, or faulty payload assembly.

Loading next visibility...
Identifier
39345, 2010-057K
Orbit
HEO
Country
Flag of CNCN / PRC
Related business
Manufacturer
CALT
Mission
Spacecraft
Bus & Motor
Unknown
Mass
Unknown
Launch date (UTC)
2010-10-31 (15 years ago)
Launch vehicle
Unknown
Launch site
Xichang Space Center, China (XSC)
Object type
Payload
Rocket body
Debris
Shape & HBR
Unknown shape, 0.4 m
Radar Cross Section
Medium (>0.1 m² and <1 m²)

Expand to show TLE details & history
Last TLE update: 21 hours ago

TLE from 21 hours ago
0 CZ-3C DEB
1 39345U 10057K   25346.68159281  .00020180  00000-0  11776-1 0  9991
2 39345  20.4996  45.8226 6777617 187.8785 150.2042  2.90121982114079
Epoch: 2025-12-12T16:21Z
TLE epoch observation values (Epoch: 2025-12-12T16:21:29.618Z)
Latitude
0.00006°
Longitude
78.83358°
Altitude
27,783.383 km
Speed
2.035 km/s
True Right ascension
03h 03m 18s
True Declination
0° 00' 00"
Sunlit
Object was in daylight at epoch
Visualization orbit readout
Latitude
Unknown
Longitude
Unknown
Altitude
Unknown
Speed
Unknown
Apparent Right ascension
Unknown
Apparent Declination
Unknown
Sunlit
N/A
Visualization observer readout
Local Sidereal Time
11:20:52
Azimuth
Unknown
Elevation
Unknown
Doppler factor
Unknown
Orbital elements
Apogee altitude
28,469.207 km
Perigee altitude
314.797 km
Semi-major axis
20,770.139 km
Eccentricity
0.67776
Inclination
20.4996°
RAAN
45.8226°
Arg. of periapsis
187.8785°
True anomaly
172.11419°
Mean anomaly
150.2042°
Eccentric anomaly
162.12416°
Mean motion
0.72508 °/min
Orbital period
496.5 mins
BSTAR
0.011776
Loading maneuver chart data...
Computing Atmospheric mass density...
Loading historical data...
Loading historical data...
Loading historical data...
Loading historical data...
Loading historical data...
Loading historical data...
Loading historical data...

Documentation

Showing up to 5 results
|